Wind_Speed
28 29 33 29 22 19 21 21 25 26 23 25 26 26 29 25 23 26 25 24 20 18 20 20 25 22 24 25 23 17 19 19 19 18 17 14 12 11 7 7 6 5 4 11
27 37 32 23 18 19 21 22 26 24 22 21 24 25 23 13 17 22 26 25 22 19 18 18 23 19 21 22 19 15 18 18 18 18 21 20 13 10 11 13 8 20 17 12
31 34 30 25 21 21 23 24 23 25 25 27 24 25 22 19 21 23 27 25 26 21 17 17 20 16 19 19 16 13 17 17 16 18 18 19 21 15 16 25 18 21 24 18
31 27 30 29 27 23 26 20 20 25 26 25 23 15 22 19 21 20 17 21 25 19 16 16 18 14 16 16 13 12 12 16 15 16 18 22 25 19 17 20 19 24 22 23
37 30 26 27 24 24 26 23 24 26 29 23 21 15 12 17 19 17 26 28 21 17 14 16 16 11 13 12 10 10 10 14 15 17 17 23 23 24 18 23 24 19 20 21
35 29 31 26 22 24 20 21 19 21 17 4 16 18 9 17 18 24 23 18 16 11 10 12 12 9 10 9 8 7 7 13 13 14 14 15 19 22 17 9 3 20 16 16
33 35 31 26 25 24 19 18 7 5 1 6 11 8 17 21 19 20 24 23 12 8 7 9 9 7 8 6 5 5 6 10 10 11 11 10 15 18 20 17 12 12 8 15
35 25 37 34 33 25 23 17 9 6 3 6 10 7 18 19 18 21 19 17 9 3 5 6 8 5 6 5 4 2 7 7 8 8 7 6 8 13 15 17 19 16 20 23
31 34 33 31 32 26 21 22 21 18 18 3 9 19 23 14 19 23 20 8 9 4 2 5 8 4 4 4 3 1 6 7 7 6 6 4 4 8 12 13 17 16 18 20
35 15 29 31 29 28 27 24 15 9 2 4 5 7 18 25 21 19 15 12 9 12 4 5 7 5 2 3 1 3 7 6 7 6 5 4 4 5 8 11 13 16 19 20
40 33 16 25 37 33 28 26 26 23 12 5 3 10 16 14 19 13 14 8 9 9 6 6 6 6 3 2 3 2 5 7 7 6 5 5 5 5 8 11 12 12 13 14
41 32 26 30 23 25 25 31 29 25 10 9 13 25 11 11 15 14 12 5 10 12 9 8 7 8 4 4 4 2 3 6 6 6 5 6 6 7 10 11 12 13 14 16
44 29 26 23 31 34 30 27 28 30 29 23 13 20 13 9 16 16 12 7 12 17 15 9 7 9 6 5 6 3 3 5 7 7 6 6 7 8 9 11 12 13 17 17
35 42 40 33 29 25 29 31 29 26 27 24 29 26 19 20 23 14 13 10 11 11 14 7 8 10 10 7 7 6 5 4 7 8 7 6 7 8 8 10 12 14 15 14
27 38 42 40 37 35 36 37 35 36 34 28 26 25 25 26 21 15 14 9 13 14 12 13 7 7 13 10 8 8 6 6 6 7 9 9 8 8 8 9 10 12 15 15
28 23 18 25 37 36 33 38 41 39 36 35 32 31 26 23 17 15 15 17 15 16 13 12 15 11 13 14 10 9 8 8 6 7 8 7 7 7 9 11 12 12 12 13
23 22 22 20 25 30 42 41 38 40 39 37 38 31 25 22 20 15 16 24 21 12 14 8 9 10 11 15 14 10 10 9 9 7 6 6 8 7 8 10 13 14 14 13
20 14 11 8 22 10 28 32 37 40 37 36 34 30 26 24 23 21 21 23 13 15 11 10 8 8 12 14 18 15 13 11 11 11 9 7 8 9 8 9 10 12 14 15
23 19 11 11 24 14 21 18 24 28 35 31 30 29 27 22 23 26 23 24 19 14 15 11 11 8 9 12 18 20 17 15 13 14 13 12 11 10 10 11 13 14 15 16
34 29 26 17 11 11 26 19 22 16 33 27 27 27 22 25 23 32 20 20 19 19 20 17 16 14 14 14 16 23 22 18 15 14 16 15 15 14 14 13 13 13 14 15
37 35 35 32 18 18 17 20 20 27 22 24 22 19 26 30 27 26 21 18 11 18 22 20 21 17 14 15 15 21 26 22 15 16 16 18 17 17 17 17 15 15 15 15
36 35 33 34 30 15 21 21 30 21 24 19 11 16 11 14 13 16 16 17 11 19 24 19 23 22 19 17 19 14 25 24 21 19 18 18 20 21 21 20 18 16 15 15
39 39 40 36 39 8 13 21 17 14 17 17 17 16 15 17 23 19 17 16 11 15 20 24 21 28 24 22 21 15 10 24 26 24 21 21 21 21 22 23 22 21 19 18
39 32 29 34 33 38 17 12 19 20 19 15 13 16 19 18 20 25 30 31 27 25 23 23 26 30 27 24 19 12 12 14 22 25 25 24 24 23 23 24 25 24 23 22
38 36 40 37 20 23 29 24 22 13 12 19 24 24 25 21 19 22 26 29 32 31 26 26 24 29 28 28 23 19 19 18 16 15 18 24 26 25 25 25 24 23 23 22
38 42 42 45 45 30 22 24 21 23 24 26 27 30 27 25 22 20 21 22 31 36 31 30 28 28 30 34 32 31 27 26 24 23 20 17 17 21 25 27 27 27 25 22
Wind_Direction
216 223 223 225 240 259 266 279 289 295 300 296 292 297 301 299 280 279 291 297 298 302 320 333 334 342 336 338 351 6 16 17 26 31 32 24 24 26 19 12 25 62 252 208
217 224 223 236 247 258 272 286 288 295 300 299 299 288 307 263 273 279 286 292 295 290 312 322 333 341 337 337 355 16 21 23 31 41 45 33 50 49 77 50 83 52 77 130
221 232 225 236 247 257 272 283 285 293 306 299 297 293 301 290 277 282 284 288 283 283 299 315 330 339 337 338 355 11 29 34 37 53 47 38 54 56 85 64 53 91 91 82
228 230 228 237 249 254 270 281 275 289 304 303 297 288 294 289 270 283 290 303 293 277 288 304 323 335 338 339 355 15 33 42 50 63 52 59 51 65 99 77 84 106 92 99
221 226 226 235 240 253 265 286 292 295 300 298 287 270 284 287 273 277 297 303 299 270 277 291 317 331 335 340 351 28 48 52 59 70 60 54 57 65 81 97 90 107 103 98
233 240 239 243 250 257 274 280 288 302 292 263 288 257 261 285 290 306 312 301 303 242 268 282 313 323 329 338 345 38 62 68 67 82 73 67 66 64 65 103 55 122 114 114
230 234 239 243 247 249 255 270 303 308 291 231 270 241 273 291 310 315 315 306 290 224 249 273 309 311 324 331 337 46 79 82 74 88 78 67 67 67 59 57 67 85 74 120
218 223 232 238 241 249 255 260 225 230 228 264 289 249 300 302 307 313 319 298 186 190 240 259 306 293 320 328 323 68 88 90 91 81 78 93 66 64 62 67 59 72 86 82
216 227 234 237 242 241 243 250 274 258 262 286 264 276 295 307 314 326 319 293 200 209 230 253 296 267 308 327 319 142 107 98 96 92 90 75 67 61 61 57 62 88 100 90
220 231 238 239 231 238 248 257 249 255 196 231 259 266 279 306 318 337 306 312 228 215 247 319 287 240 270 307 280 131 123 115 98 94 98 84 61 67 66 73 84 102 102 106
221 224 229 234 230 233 234 228 239 257 244 186 237 263 289 305 320 344 335 320 234 222 230 338 270 226 222 251 230 207 133 126 117 110 107 103 93 80 83 97 99 109 125 117
216 224 225 231 232 239 247 246 246 234 232 225 249 267 279 291 312 316 264 290 217 200 227 303 278 212 206 218 226 215 145 132 127 122 131 123 110 110 108 107 104 104 130 129
209 214 212 224 232 236 236 244 244 245 247 231 225 259 271 291 318 306 305 211 209 208 222 300 300 213 206 211 217 192 146 126 123 122 125 128 128 117 119 117 110 106 118 124
212 221 223 224 231 230 240 241 245 246 236 237 242 254 247 277 307 300 296 226 202 210 225 279 301 212 207 217 206 195 187 140 124 118 112 123 138 140 134 121 117 121 125 127
204 221 230 240 246 245 240 242 245 245 249 241 248 254 263 278 294 265 258 270 227 210 226 257 307 236 213 215 215 195 204 184 148 132 122 121 128 146 149 145 143 141 140 139
204 224 220 238 236 237 241 242 243 246 241 240 243 255 269 275 288 247 247 268 247 244 239 251 252 291 222 215 218 206 195 205 190 162 133 120 122 135 156 157 154 156 154 152
203 220 221 234 232 229 240 234 240 245 241 241 244 256 268 273 264 255 251 241 251 227 248 243 261 265 270 224 218 213 201 200 203 200 163 135 122 126 144 151 153 157 160 161
191 205 204 199 205 207 241 240 241 246 251 248 247 255 265 267 259 240 230 224 223 214 241 240 238 247 267 230 220 216 210 196 200 193 184 166 142 131 131 134 134 138 145 149
219 223 217 198 203 230 233 212 215 223 241 243 245 256 265 259 257 212 215 235 231 226 225 230 237 237 242 266 225 222 220 207 196 193 182 177 164 152 147 145 139 135 133 132
230 230 232 206 204 218 231 221 229 223 237 239 244 251 258 257 222 218 223 234 231 239 224 235 233 241 230 253 244 226 227 220 205 198 188 183 174 168 164 161 155 153 153 152
220 223 223 224 220 233 217 208 198 201 234 240 241 240 253 238 241 242 241 225 225 234 224 224 224 227 221 242 258 234 229 228 209 205 205 190 185 181 180 177 175 175 174 171
208 206 214 218 219 234 209 193 209 221 240 245 234 227 264 249 207 209 215 211 247 240 219 217 225 223 221 232 249 250 231 227 219 214 212 207 196 195 194 191 193 193 190 188
211 213 211 216 217 194 221 229 234 243 232 243 247 249 246 218 213 226 223 230 220 217 218 223 223 218 219 223 240 248 233 221 223 222 217 214 210 207 205 205 205 203 201 200
217 212 215 222 226 228 225 199 189 202 220 216 212 225 210 210 232 242 241 228 232 237 236 227 214 216 219 215 217 206 226 215 220 226 226 222 222 217 213 213 216 217 215 213
221 223 227 228 220 220 214 205 179 197 224 221 234 244 222 235 237 230 219 216 218 226 230 221 226 223 222 217 213 213 207 207 202 211 223 228 230 230 227 225 226 230 231 229
208 218 219 225 228 226 209 204 221 240 253 249 238 235 231 231 219 213 215 222 214 220 226 232 244 225 228 224 218 220 227 225 224 217 216 216 223 232 235 235 232 231 232 231
Height
3128 3132 3127 3133 3139 3140 3142 3142 3142 3143 3145 3142 3141 3140 3139 3137 3136 3135 3134 3132 3131 3131 3130 3127 3125 3120 3116 3111 3107 3103 3098 3094 3088 3084 3081 3078 3076 3073 3069 3067 3063 3061 3060 3062
3124 3119 3126 3133 3136 3137 3137 3138 3139 3139 3140 3139 3138 3137 3136 3134 3132 3131 3131 3128 3128 3128 3127 3126 3124 3120 3116 3111 3108 3104 3100 3095 3090 3087 3085 3082 3078 3074 3072 3070 3066 3064 3059 3062
3115 3117 3125 3128 3130 3133 3133 3134 3135 3136 3136 3134 3133 3131 3133 3132 3130 3128 3127 3125 3124 3125 3126 3125 3123 3120 3116 3112 3109 3105 3102 3098 3093 3091 3090 3087 3082 3078 3078 3075 3071 3072 3069 3067
3111 3117 3120 3123 3125 3129 3128 3133 3132 3132 3132 3131 3130 3125 3128 3127 3126 3125 3123 3122 3121 3122 3123 3123 3122 3119 3116 3112 3109 3106 3104 3100 3097 3095 3095 3093 3088 3084 3082 3082 3080 3080 3079 3078
3104 3109 3114 3116 3120 3124 3126 3128 3128 3128 3127 3126 3126 3126 3122 3122 3121 3121 3120 3118 3117 3119 3121 3122 3120 3118 3116 3113 3110 3107 3105 3102 3100 3099 3099 3098 3095 3091 3090 3090 3089 3089 3087 3086
3101 3106 3109 3113 3117 3120 3123 3124 3124 3123 3122 3121 3121 3121 3118 3118 3117 3116 3115 3113 3113 3115 3118 3120 3119 3118 3116 3114 3112 3109 3107 3105 3103 3103 3103 3103 3102 3098 3096 3096 3095 3093 3093 3092
3095 3098 3104 3109 3113 3115 3118 3120 3121 3122 3121 3120 3116 3117 3115 3113 3113 3112 3110 3109 3109 3113 3116 3118 3117 3117 3115 3114 3113 3110 3108 3107 3106 3106 3106 3106 3107 3106 3103 3100 3097 3096 3096 3096
3086 3092 3096 3102 3106 3111 3113 3116 3118 3122 3121 3114 3113 3112 3110 3110 3110 3108 3104 3104 3105 3111 3114 3116 3116 3116 3115 3114 3114 3111 3109 3108 3108 3108 3108 3109 3109 3110 3108 3106 3102 3099 3101 3101
3079 3083 3091 3096 3101 3106 3108 3109 3112 3111 3111 3111 3109 3108 3107 3106 3106 3105 3103 3102 3104 3109 3112 3114 3114 3115 3114 3114 3114 3112 3110 3109 3109 3109 3110 3110 3111 3112 3111 3109 3108 3105 3107 3108
3074 3081 3085 3091 3095 3098 3100 3106 3107 3107 3110 3110 3105 3104 3103 3104 3104 3102 3101 3102 3103 3107 3110 3112 3113 3113 3114 3113 3114 3114 3111 3110 3110 3110 3110 3111 3112 3114 3113 3113 3112 3113 3114 3115
3070 3078 3082 3084 3084 3090 3094 3096 3100 3103 3104 3104 3109 3099 3102 3102 3101 3101 3100 3101 3103 3106 3109 3110 3111 3112 3113 3113 3114 3114 3113 3112 3111 3112 3112 3112 3113 3114 3115 3116 3116 3116 3119 3121
3062 3070 3074 3077 3080 3084 3087 3089 3094 3095 3099 3098 3097 3093 3099 3101 3100 3099 3101 3100 3102 3105 3108 3109 3109 3111 3112 3113 3114 3114 3113 3112 3112 3113 3114 3114 3114 3115 3117 3118 3119 3120 3121 3123
3055 3060 3066 3070 3074 3074 3077 3082 3086 3089 3091 3091 3093 3091 3097 3098 3097 3098 3098 3098 3100 3103 3106 3108 3108 3110 3111 3113 3114 3115 3114 3113 3113 3114 3114 3115 3116 3117 3119 3120 3121 3122 3124 3126
3049 3052 3051 3052 3062 3070 3073 3076 3080 3083 3083 3086 3085 3089 3092 3094 3095 3095 3097 3098 3099 3102 3104 3107 3107 3108 3110 3113 3114 3115 3115 3115 3114 3114 3115 3116 3117 3119 3120 3121 3123 3125 3126 3128
3042 3040 3047 3052 3058 3063 3065 3068 3072 3073 3077 3079 3082 3083 3087 3090 3091 3092 3094 3095 3097 3099 3101 3105 3107 3107 3108 3111 3114 3115 3116 3115 3116 3116 3116 3118 3118 3119 3121 3122 3125 3127 3129 3131
3034 3036 3040 3043 3050 3054 3057 3056 3061 3066 3068 3071 3076 3077 3083 3085 3086 3087 3091 3091 3094 3097 3099 3102 3105 3106 3107 3110 3113 3116 3117 3116 3117 3117 3118 3119 3119 3121 3122 3124 3126 3128 3130 3132
3029 3030 3034 3036 3042 3048 3039 3048 3054 3059 3062 3066 3069 3073 3077 3079 3082 3084 3086 3088 3091 3093 3096 3099 3103 3105 3106 3108 3111 3115 3117 3118 3118 3118 3119 3120 3121 3122 3124 3126 3128 3129 3131 3134
3023 3026 3029 3032 3037 3039 3028 3038 3045 3051 3055 3058 3063 3067 3070 3073 3076 3078 3082 3084 3087 3090 3094 3096 3099 3103 3104 3106 3109 3112 3115 3118 3119 3120 3120 3121 3122 3124 3126 3127 3129 3131 3133 3136
3018 3022 3025 3027 3027 3026 3025 3030 3038 3044 3048 3053 3058 3062 3064 3067 3069 3072 3077 3081 3084 3087 3090 3093 3097 3100 3102 3104 3106 3109 3112 3116 3118 3120 3121 3123 3124 3126 3128 3131 3132 3134 3136 3138
3011 3018 3022 3021 3020 3017 3018 3028 3035 3041 3039 3046 3052 3056 3059 3061 3063 3066 3073 3077 3080 3083 3085 3089 3093 3096 3099 3101 3102 3105 3108 3113 3117 3120 3122 3124 3125 3128 3130 3132 3134 3136 3139 3141
3002 3007 3011 3013 3013 3012 3017 3024 3030 3034 3038 3042 3046 3050 3052 3053 3057 3064 3070 3072 3075 3078 3081 3084 3088 3092 3096 3098 3099 3101 3105 3109 3114 3117 3121 3123 3125 3127 3131 3134 3136 3138 3141 3143
2992 2999 3002 3007 3008 3008 3013 3020 3022 3031 3035 3040 3043 3046 3046 3050 3054 3060 3064 3067 3069 3073 3076 3080 3083 3087 3092 3094 3095 3096 3100 3107 3110 3113 3117 3121 3123 3126 3129 3132 3135 3138 3141 3143
2986 2989 2992 2997 2997 3002 3007 3015 3021 3025 3032 3035 3039 3040 3042 3046 3051 3056 3060 3062 3065 3069 3073 3076 3079 3082 3086 3090 3093 3093 3098 3101 3105 3109 3113 3117 3120 3123 3127 3130 3133 3136 3139 3142
2979 2984 2988 2993 2994 3000 3006 3011 3016 3021 3027 3031 3033 3036 3039 3043 3047 3049 3052 3057 3060 3064 3069 3071 3074 3077 3081 3086 3089 3091 3095 3097 3100 3104 3108 3112 3115 3119 3122 3126 3129 3132 3135 3138
2974 2980 2982 2985 2989 2994 2999 3007 3013 3017 3023 3026 3028 3032 3034 3036 3038 3040 3044 3048 3053 3059 3062 3066 3070 3074 3077 3081 3085 3088 3091 3095 3097 3101 3104 3107 3111 3114 3117 3121 3124 3128 3131 3134
2964 2971 2975 2975 2983 2991 2998 3003 3008 3013 3017 3019 3021 3024 3027 3031 3033 3035 3039 3043 3047 3051 3055 3059 3063 3068 3072 3076 3079 3083 3087 3091 3094 3097 3099 3102 3106 3109 3112 3115 3118 3122 3126 3129